Weather Roundup
Issued by NWS Springfield, MO

Home | Current Version | Previous Version | Text Only | Print | Product List | Glossary On
Versions: 1 2 3 4 5 6 7 8 9 10 11 12 13 14 15 16 17 18 19 20 21 22 23 24 25 26 27 28 29 30 31 32 33 34 35 36 37 38 39 40 41 42 43 44 45 46 47 48 49 50
000
NZUS99 KSGF 260259
HRRSGF

HOURLY WEATHER
NATIONAL WEATHER SERVICE SPRINGFIELD MO
1000 PM CDT FRI JUL 25 2014

......SGF CWA......

CITY           SKY/WX    TMP DP  RH WIND       PRES   REMARKS
SPRINGFIELD    CLEAR     78  69  73 S8        29.91R
JOPLIN         CLEAR     82  70  66 S13       29.90S
WEST PLAINS    PTCLDY    75  68  78 S5        29.97S
ROLLA          CLEAR     77  67  71 S16       29.88S
OSAGE BEACH    CLEAR     81  70  69 S10       29.87R
BRANSON        CLEAR     77  72  83 S3        29.96R

......SURROUNDING SGF CWA......

CITY           SKY/WX    TMP DP  RH WIND       PRES   REMARKS
CHANUTE        CLEAR     83  73  72 S15G24    29.86R
PARSONS        CLEAR     83  73  72 S12G20    29.88R
COFFEYVILLE    CLEAR     82  74  76 S15       29.87R
EMPORIA        PTCLDY    85  72  65 S14       29.81R HX  91
SILOAM SPRINGS CLEAR     75  66  73 SW3       29.97R
HARRISON AR    CLEAR     77  72  84 S9        29.96S
NEAR YELLVILLE CLEAR     79  72  78 CALM      29.95R

......KANSAS AND MISSOURI......

CITY           SKY/WX    TMP DP  RH WIND       PRES   REMARKS
KANSAS CTY INT PTCLDY    86  74  67 SW20      29.79R HX  94
DOWNTOWN KC    PTCLDY    88  74  63 SW14G22   29.78R HX  96
COLUMBIA       CLEAR     80  71  74 S8        29.86R
SEDALIA        CLEAR     83  69  62 S8        29.85R
ST JOSEPH      CLEAR     83  73  72 S6        29.75R
ST LOUIS       PTCLDY    78  64  61 S8        29.92R
SPIRIT OF STL  CLEAR     76  65  68 SE3       29.90R
KIRKSVILLE     CLEAR     73  68  84 S7        29.84R
WICHITA        PTCLDY    86  66  51 S14       29.82R
TOPEKA         CLEAR     90  73  57 S12G20    29.77R HX  98
OLATHE         PTCLDY    84  74  71 S15G22    29.81R HX  91

......TENNESSEE......

CITY           SKY/WX    TMP DP  RH WIND       PRES   REMARKS
MEMPHIS        PTCLDY    76  64  66 S5        29.98R
NASHVILLE      MOCLDY    76  62  62 CALM      30.00R

......ARKANSAS.......

CITY           SKY/WX    TMP DP  RH WIND       PRES   REMARKS
FAYETTEVILLE   CLEAR     78  71  79 S5        29.96S
FT SMITH       CLEAR     82  73  74 S6        29.94R
LITTLE ROCK    CLEAR     78  72  81 S5        29.96F

......OKLAHOMA.......

CITY           SKY/WX    TMP DP  RH WIND       PRES   REMARKS
TULSA          CLEAR     86  73  65 S10       29.88R HX  93
PONCA CITY     CLEAR     87  72  60 S16G24    29.84R HX  93
MCALESTER      CLEAR     83  73  72 SE7       29.94R
OKLAHOMA CITY  PTCLDY    85  62  46 S12       29.89R

......IOWA............

CITY           SKY/WX    TMP DP  RH WIND       PRES   REMARKS
DES MOINES     PTCLDY    78  72  81 E8        29.78R
QUAD CITIES    CLOUDY    69  64  84 SE9       29.87S

......ILLINOIS........

CITY           SKY/WX    TMP DP  RH WIND       PRES   REMARKS
QUINCY         CLEAR     71  64  78 SE9       29.86S
CHICAGO        CLOUDY    71  57  61 SW7       29.93S



USA.gov is the U.S. government's official web portal to all federal, state and local government web resources and services.